Location: Ballingbuur
(53.0000°N, 5.7667°E)
Time: 05:11:55
(UTC+00:00)

CRYOSAT 2 - Pass Details

Date: 29 November 2020
Orbit: 715 x 724 km, 92.0° (Epoch: 23 January)

Event Time Altitude Azimuth Distance (km) Brightness Sun altitude
Rises 04:27:13 0° 169° (S) 3,111 7.8 -25.7°
Reaches altitude 10° 04:29:29 10° 168° (SSE) 2,196 7.0 -25.4°
Maximum altitude 04:34:21 78° 82° (E) 740 4.4 -24.6°
Drops below altitude 10° 04:39:15 10° 358° (N) 2,219 6.8 -23.9°
Sets 04:41:33 0° 357° (N) 3,146 7.6 -23.6°
